Location: Kumla
(59.1265°N, 15.1401°E)
Time: 21:18:11
(UTC+01:00)

Vanguard 1 - Pass Details

Date: 05 December 2023
Orbit: 653 x 3825 km, 34.3° (Epoch: 04 March)

Event Time Altitude Azimuth Distance (km) Brightness Sun altitude
Rises 20:12:39 0° 244° (WSW) 6,540 14.8 -37.1°
Reaches altitude 10° 20:17:10 10° 236° (SW) 5,910 14.3 -37.7°
Maximum altitude 20:33:21 33° 182° (S) 5,081 13.4 -39.6°
Enters shadow 20:36:33 32° 169° (S) 5,213 13.3 -40.0°
